Flag for India Weather past 2 weeks in Amritsar, Punjab, India

Now
73 °F

Fog.


Feels Like: 73 °F
Forecast: 69 / 88 °F
Wind: No wind

Location: Amritsar Airport

Current Time: Oct 24, 2014 at 8:25:51 PM

Latest Report: Oct 24, 2014 at 7:30 PM


Visibility: 2 mi

Pressure: 29.92 "Hg

Humidity: 83%

Dew point: 68 °F

Location of AmritsarLocation

Historic Weather in Amritsar — Graph

°F

Amritsar temperature yesterday

Maximum temperature yesterday: 86 °F (at 11:30 AM)
Minimum temperature yesterday: 63 °F (at 6:00 AM)
Average temperature yesterday: 74 °F

Past Weeks' High & Low Weather Summary

 TemperatureHumidityPressure
High90 °F (Oct 12, 2:30 PM)100% (Oct 10, 4:00 AM)30.09 "Hg (Oct 10, 4:00 AM)
Low57 °F (Oct 15, 7:00 AM)35% (Oct 12, 4:00 PM)29.77 "Hg (Oct 11, 5:00 PM)
Average73 °F76%29.93 "Hg
* Reported Oct 9 7:00 PM — Oct 24 7:00 PM, Amritsar, Weather by CustomWeather, © 2014

Note: Actual official high and low records may vary slightly from our data, if they occured in-between our weather recording intervals... More about our weather records

Advertising

Amritsar weather history for previous 24 hours

 ConditionsComfort  
Time TempWeatherWind HumidityBarometerVisibility
7:00 PM
Oct 24
75 °FFog.No wind78%29.92 "Hg2 mi
6:30 PM75 °FFog.5 mph78%29.92 "Hg2 mi
6:00 PM77 °FFog.No wind74%29.89 "Hg2 mi
5:30 PM79 °FHaze.No wind70%29.89 "Hg2 mi
5:00 PM81 °FHaze.6 mph66%29.89 "Hg2 mi
4:30 PM82 °FHaze.8 mph58%29.89 "Hg2 mi
4:00 PM82 °FHaze.7 mph58%29.89 "Hg2 mi
3:30 PM82 °FHaze.5 mph58%29.89 "Hg2 mi
3:00 PM82 °FHaze.5 mph58%29.92 "Hg2 mi
2:30 PM84 °FHaze.5 mph55%29.92 "Hg2 mi
2:00 PM82 °FHaze.7 mph58%29.92 "Hg2 mi
1:30 PM82 °FHaze.7 mph62%29.95 "Hg2 mi
1:00 PM82 °FHaze.6 mph62%29.95 "Hg1 mi
12:30 PM82 °FFog.7 mph66%29.98 "Hg1 mi
12:00 PM81 °FFog.6 mph70%29.98 "Hg1 mi
11:30 AM79 °FFog.7 mph74%29.98 "Hg1 mi
11:00 AM79 °FFog.6 mph74%29.98 "Hg1 mi
10:30 AM77 °FFog.6 mph79%29.98 "Hg1 mi
10:00 AM75 °FFog.6 mph83%29.98 "Hg1 mi
9:00 AM70 °FFog.3 mph94%29.98 "Hg1 mi
8:30 AM70 °FFog.3 mph100%29.98 "Hg1 mi
8:00 AM68 °FFog.No wind100%29.98 "Hg1 mi
7:30 AM66 °FFog.No wind100%29.95 "Hg1 mi
7:00 AM64 °FFog.2 mph100%29.95 "Hg1 mi
6:30 AM66 °FFog.No wind100%29.95 "Hg1 mi
6:00 AM66 °FFog.No wind100%29.95 "Hg1 mi
5:30 AM68 °FFog.2 mph94%29.92 "Hg1 mi
5:00 AM66 °FFog.No wind100%29.92 "Hg1 mi
4:30 AM68 °FFog.3 mph94%29.92 "Hg1 mi
4:00 AM68 °FFog.3 mph94%29.92 "Hg1 mi
3:30 AM68 °FFog.3 mph94%29.92 "Hg1 mi
3:00 AM68 °FFog.2 mph94%29.92 "Hg1 mi
2:30 AM70 °FFog.5 mph88%29.95 "Hg1 mi
2:00 AM68 °FFog.5 mph94%29.95 "Hg1 mi
1:30 AM68 °FFog.5 mph94%29.95 "Hg1 mi
1:00 AM70 °FFog.No wind88%29.95 "Hg1 mi
12:30 AM70 °FFog.No wind88%29.92 "Hg1 mi
12:00 AM68 °FFog.No wind94%29.92 "Hg1 mi
11:30 PM
Oct 23
70 °FFog.1 mph88%29.92 "Hg1 mi
11:00 PM70 °FFog.No wind88%29.92 "Hg1 mi
10:30 PM72 °FFog.No wind83%29.92 "Hg1 mi
10:00 PM72 °FFog.No wind83%29.92 "Hg1 mi
9:30 PM72 °FFog.No wind83%29.92 "Hg2 mi
9:00 PM73 °FFog.No wind78%29.92 "Hg2 mi
8:30 PM72 °FFog.1 mph83%29.92 "Hg2 mi
8:00 PM73 °FFog.No wind83%29.92 "Hg2 mi
Weather by CustomWeather, © 2014

See weather overviewHow to use our weather pages